{"data":{"norad_id":69892,"intl_designator":"2026-156Z","name":"ICEYE-X77","alt_names":[],"object_type":"PAYLOAD","status":"ACTIVE","operator":null,"country":"FIN","launch_date":"2026-07-07","launch_site_code":"AFWTR","launch_vehicle":null,"mission":null,"orbit_class":"UNKNOWN","rcs_meters":null,"size_class":null,"mass_kg":null,"dimensions":null,"purposes":[],"wikipedia_slug":null,"has_3d_model":false,"image_url":null,"decayed_at":null,"tle_current":{"epoch":"2026-09-20T04:29:39.975072Z","epoch_age_seconds":48678,"freshness":"FRESH","line1":"1 69892U 26156Z   26263.18726823  .00051988  00000+0  50412-2 0  9994","line2":"2 69892  97.7436 162.4065 0005520 267.1993  92.8594 14.92442443 11168","mean_motion":14.92442443,"eccentricity":0.000552,"inclination_deg":97.7436,"raan_deg":162.4065,"arg_perigee_deg":267.1993,"mean_anomaly_deg":92.8594,"bstar":0.0050412,"rev_number":1116,"period_min":96.486132966402,"perigee_km":586.47591295217,"apogee_km":594.16909224304,"semimajor_km":6968.4595025976,"source":"CELESTRAK","updated_at":"2026-09-20T09:00:25.168915Z"}}}